GFSCGP_700_spd_000.txt.gz
Wind_Speed
21 23 24 22 21 19 17 15 17 11 20 19 14 18 19 17 14 14 16 15 14 13 14 12 8 4 5 5 6 7 7 5 7 8 9 12 15 17 19 20 21 22 24 27
23 29 22 19 21 21 20 13 15 16 14 13 11 17 19 18 17 16 17 17 17 16 18 12 12 14 10 11 2 4 6 5 4 6 8 10 12 17 19 21 23 24 25 26
28 26 22 19 20 21 20 16 14 18 14 10 12 16 25 15 17 17 18 18 19 22 19 12 8 7 9 8 6 6 7 9 9 13 14 14 14 13 14 18 17 18 20 23
26 23 24 23 22 20 23 17 18 19 15 18 20 22 27 25 21 20 21 21 22 23 22 18 14 12 11 10 8 5 4 7 9 13 19 22 19 14 16 19 21 17 20 18
29 26 28 27 25 22 20 18 21 17 17 19 18 16 27 25 25 25 25 25 23 24 24 23 18 16 15 10 8 5 2 4 8 13 20 25 21 17 16 17 12 14 16 15
24 22 23 25 22 21 20 14 22 17 18 24 24 18 12 22 32 35 24 25 26 26 24 24 22 22 21 14 10 6 1 3 7 11 19 25 25 21 18 17 17 17 19 21
26 27 21 21 23 22 21 17 13 12 15 16 21 23 18 19 20 22 18 30 32 27 27 26 27 27 27 21 15 6 4 6 9 12 19 26 29 27 22 18 16 16 19 21
28 28 25 24 27 23 23 22 17 13 12 17 17 12 23 11 10 10 14 31 24 30 31 31 30 31 32 30 26 16 13 12 12 14 18 25 29 32 27 22 17 18 21 22
29 28 26 27 23 25 20 27 24 23 17 9 10 15 15 14 12 11 10 15 25 24 31 33 32 34 35 37 33 28 21 18 18 18 19 24 30 29 32 24 22 23 25 24
24 22 26 26 22 23 23 19 20 24 9 10 11 12 18 20 14 10 8 12 15 23 30 31 32 34 38 38 36 33 26 22 21 22 21 23 30 30 33 29 26 25 24 23
35 26 26 28 29 30 27 19 17 18 18 10 9 6 14 14 11 8 7 8 8 13 23 31 32 34 38 38 37 36 29 25 23 24 21 21 28 32 34 36 29 27 26 24
32 20 24 38 26 26 28 24 15 18 13 14 15 9 12 11 9 11 9 5 7 10 12 31 28 32 38 39 39 39 27 27 27 26 23 22 26 31 35 38 33 29 26 24
30 26 18 20 27 28 27 24 26 23 20 21 16 9 11 9 12 9 9 6 7 11 10 23 29 30 38 39 38 33 26 28 30 28 25 26 27 32 34 38 34 29 26 26
30 32 26 25 25 27 30 29 29 30 27 25 23 12 15 13 13 11 6 5 7 11 16 24 24 32 35 34 30 32 30 31 30 28 27 28 29 30 33 39 33 28 26 24
30 22 26 28 28 24 25 29 29 29 31 28 23 15 20 10 20 13 15 14 10 12 18 23 27 27 37 38 36 35 33 33 32 25 27 29 30 31 35 36 28 26 23 24
25 18 19 24 24 25 28 28 29 29 28 30 27 28 21 18 5 9 6 9 13 14 17 23 27 30 36 41 40 39 35 35 29 27 25 31 30 34 37 31 28 28 28 25
26 27 26 25 24 26 31 30 29 27 28 26 25 17 11 13 17 11 9 16 16 22 20 24 28 29 37 40 41 39 39 31 28 26 25 28 30 35 32 27 26 27 29 28
23 32 30 29 28 21 27 25 25 24 24 24 24 23 14 16 7 7 7 15 21 18 17 17 21 25 32 37 39 40 36 28 26 22 23 27 32 34 30 28 29 27 30 37
12 22 28 30 29 24 23 16 2 3 13 15 14 22 21 9 7 8 13 7 12 16 14 14 20 24 30 35 36 33 32 22 20 19 23 30 32 29 29 32 31 32 31 31
16 17 35 8 17 18 26 18 22 9 17 7 6 17 22 14 7 6 7 11 14 16 17 15 13 23 28 32 33 23 18 17 15 17 26 29 29 28 30 33 34 30 30 36
27 21 20 20 23 30 23 18 15 22 31 20 12 4 7 1 7 7 10 15 19 17 16 17 14 16 21 28 29 18 15 16 15 21 28 29 29 32 34 34 33 30 36 37
27 18 22 29 26 26 27 13 18 12 22 12 9 7 9 15 10 9 8 15 21 16 15 16 14 18 17 19 24 18 17 16 19 25 28 29 33 35 30 32 38 33 36 37
19 31 23 13 5 10 3 14 19 16 12 15 17 15 15 16 17 20 27 19 24 20 18 14 18 20 21 21 23 28 26 22 20 25 29 31 33 37 37 34 38 33 38 40
17 6 3 15 25 12 8 8 12 11 11 7 5 6 13 19 26 29 32 23 21 19 20 19 20 22 24 25 26 29 27 19 24 29 34 37 37 31 32 31 37 34 36 33
19 13 22 8 3 15 21 17 11 13 16 18 21 23 25 28 29 31 26 16 22 21 21 22 28 30 33 37 36 35 6 15 23 30 30 28 23 24 28 33 27 21 34 39
9 2 2 9 11 2 10 5 5 11 12 15 19 21 19 14 12 13 16 22 25 28 28 34 34 31 37 37 25 31 28 23 21 31 32 24 22 17 22 33 42 40 32 29

GFSCGP_700_spd_003.txt.gz
Wind_Speed
16 21 21 22 17 19 24 27 24 17 20 17 18 20 14 15 15 10 21 19 14 11 6 5 6 9 10 11 9 9 7 3 2 3 6 9 12 15 18 20 20 21 21 22
20 26 27 18 18 21 24 22 26 20 27 16 20 23 17 22 21 14 16 18 11 8 4 5 5 5 7 8 4 3 5 8 11 11 9 11 11 12 16 18 16 17 16 15
28 24 25 22 19 22 25 20 25 25 29 18 22 25 27 21 27 26 18 19 15 14 12 8 6 4 3 5 5 6 7 8 10 12 16 18 17 15 15 16 13 13 12 15
26 23 29 27 30 25 26 19 15 17 32 29 33 18 33 26 27 31 24 23 18 23 21 15 13 11 9 9 9 8 6 5 6 11 19 24 26 23 18 18 15 11 14 13
32 28 32 29 25 20 22 20 15 23 21 26 32 14 25 29 29 29 28 26 24 24 25 18 18 16 13 12 11 10 8 4 6 13 17 22 26 28 24 19 13 13 14 14
27 25 28 31 22 25 17 17 16 19 24 13 14 25 18 35 34 27 33 31 29 27 28 24 18 19 17 16 14 11 7 4 3 8 11 17 24 28 28 22 18 16 18 19
29 33 30 25 25 26 20 18 17 5 10 7 24 26 21 29 26 20 28 38 32 34 30 28 25 24 21 19 17 13 8 6 4 4 7 14 22 28 30 28 23 21 22 24
28 30 33 28 31 30 25 28 10 5 4 14 32 22 11 21 22 13 18 25 29 38 36 32 30 28 25 22 21 18 13 10 9 9 11 15 20 26 31 31 29 25 24 25
28 33 25 28 27 26 29 33 21 22 25 16 11 21 19 15 18 22 24 21 26 39 41 36 33 30 28 27 24 23 23 22 19 15 13 14 17 23 29 31 32 31 26 24
35 28 30 26 23 31 25 30 21 23 2 5 8 17 15 28 23 22 19 16 25 28 40 38 36 33 31 30 28 28 27 27 27 28 19 17 16 19 25 29 33 34 28 25
38 35 28 26 29 30 17 27 21 25 22 6 3 2 4 26 18 14 14 12 13 23 31 33 32 31 31 31 30 30 30 30 31 28 27 21 20 19 22 27 29 32 30 26
38 28 34 33 28 35 32 25 27 16 6 7 3 3 13 19 19 18 18 17 14 11 16 24 32 32 33 34 33 32 30 28 28 28 31 25 21 21 23 27 30 34 32 27
40 38 34 25 34 34 35 34 33 20 18 16 6 8 15 17 17 18 18 15 11 8 7 12 30 32 31 32 30 31 30 27 26 29 31 28 23 22 25 28 32 34 31 28
38 35 23 23 22 34 34 35 28 27 23 21 22 14 22 18 20 17 20 17 9 11 13 14 15 26 31 28 25 20 23 26 25 29 31 30 23 22 24 28 32 32 29 24
36 41 32 25 19 15 29 29 32 27 27 25 23 15 31 17 21 22 14 11 15 12 16 17 19 27 28 29 28 26 28 27 26 30 30 27 22 21 24 27 32 30 27 23
38 29 24 18 24 20 19 22 33 31 32 32 32 29 28 29 32 23 20 24 25 18 12 17 27 28 30 30 31 29 32 36 30 34 29 24 24 21 23 28 31 27 24 25
46 32 28 14 16 12 17 15 18 23 36 33 34 32 33 30 23 22 26 24 18 12 12 19 25 21 29 32 33 32 37 36 32 34 31 23 22 21 24 30 28 24 23 25
36 26 24 16 19 7 18 16 17 20 6 9 16 20 16 28 25 21 18 13 13 9 7 10 13 29 22 26 32 33 37 31 30 34 28 23 20 20 26 27 26 25 26 26
22 26 12 19 27 15 21 23 27 14 7 2 5 23 21 28 19 16 11 5 9 10 9 16 14 13 23 27 27 30 33 31 32 32 21 19 16 20 25 28 27 27 30 27
17 18 15 6 5 0 24 23 14 10 8 5 9 18 17 21 17 12 10 9 11 12 17 22 18 18 16 21 28 28 27 27 31 25 18 16 18 23 27 28 30 31 31 25
17 19 14 14 5 14 17 8 9 17 18 10 9 12 16 16 19 14 5 7 16 23 26 27 20 16 15 23 25 25 23 24 20 21 20 19 21 23 27 30 35 32 30 31
29 17 12 12 9 8 17 9 9 17 16 24 16 19 29 16 14 11 11 17 17 22 22 24 24 19 15 17 22 25 22 20 20 22 22 19 21 25 32 31 32 35 33 36
1 4 6 15 16 16 19 11 17 9 9 11 16 18 21 21 23 24 21 21 20 19 23 24 26 18 10 17 22 24 25 27 27 22 25 22 15 28 27 34 30 27 36 39
14 8 13 6 12 14 15 18 20 18 11 4 8 14 17 14 16 21 23 25 28 24 22 24 25 23 21 26 30 31 30 37 33 10 22 7 14 28 32 35 34 33 34 37
6 6 7 4 7 8 9 7 12 23 26 12 9 11 12 14 18 20 19 26 23 17 25 27 25 26 27 29 33 33 34 37 25 32 25 23 32 21 28 31 32 33 27 33
7 6 8 14 13 14 16 14 7 4 12 20 16 10 9 13 12 17 19 19 16 16 20 25 24 25 28 30 33 32 33 32 21 26 25 23 23 21 23 27 28 27 28 27

GFSCGP_700_spd_006.txt.gz
Wind_Speed
34 32 33 27 18 17 10 25 27 27 28 24 21 14 10 12 11 14 11 9 8 8 5 7 8 10 9 10 11 9 4 5 7 4 1 3 6 10 14 17 18 17 16 20
30 39 38 25 22 20 17 14 28 26 26 28 22 18 13 12 12 7 4 8 9 13 12 9 7 4 7 9 8 5 6 7 7 9 10 12 11 11 12 14 16 14 14 15
32 46 36 28 26 21 18 18 26 30 27 25 21 21 22 18 16 16 15 10 7 10 13 12 9 7 9 10 10 9 9 9 8 10 13 16 18 18 14 10 8 9 14 15
25 42 39 32 29 22 23 17 24 32 30 21 32 17 31 27 28 27 23 21 18 15 13 13 12 14 12 11 10 9 9 9 8 9 11 15 20 24 24 17 13 11 9 9
33 37 39 33 31 20 22 14 21 14 31 39 35 11 34 35 37 36 32 28 23 22 20 12 14 15 14 13 11 10 10 8 6 8 12 14 20 24 27 25 20 16 14 12
31 32 31 36 27 22 19 25 18 16 30 15 30 34 21 43 38 33 32 28 29 25 24 21 14 17 18 17 16 13 13 10 5 3 7 12 15 20 23 26 26 22 18 16
29 32 29 31 31 25 29 27 12 5 7 8 33 28 29 23 33 31 29 24 29 28 29 27 22 22 21 21 18 16 16 12 8 7 1 4 7 13 18 23 26 26 23 20
33 31 36 33 38 32 25 30 16 7 3 9 19 15 30 31 25 23 30 24 22 21 26 26 27 24 24 21 21 20 18 17 14 9 6 5 7 10 16 21 25 27 29 24
15 30 29 35 33 31 33 34 26 23 10 4 21 32 33 34 19 28 29 26 28 25 28 24 27 29 27 26 22 20 21 22 21 17 14 13 14 11 11 16 21 25 28 28
34 29 33 32 30 32 34 31 27 20 7 4 7 10 22 25 23 30 28 27 28 31 33 28 26 23 24 24 21 21 21 25 25 26 24 22 23 20 15 17 20 24 27 29
40 33 32 27 31 33 36 33 34 30 22 7 3 11 12 21 19 28 28 28 25 26 30 25 23 24 25 31 33 27 24 24 26 27 26 25 25 25 20 18 19 21 26 28
42 24 42 39 25 20 32 39 30 27 16 11 15 18 10 11 20 25 26 22 18 25 31 23 24 25 28 30 29 29 29 26 27 28 23 22 26 27 25 20 19 21 24 28
39 41 32 28 30 27 41 32 34 28 20 24 8 4 12 21 24 21 21 21 19 15 17 19 21 23 25 30 31 29 28 28 29 29 25 25 28 27 26 23 20 22 24 25
46 42 41 33 28 20 41 38 32 33 33 26 22 13 22 25 24 23 27 25 24 15 8 10 17 19 19 24 30 31 25 25 27 26 26 26 25 27 26 24 19 21 24 22
54 45 41 34 34 33 35 45 43 38 33 33 30 23 29 29 28 28 30 29 26 22 20 16 18 21 25 27 26 32 35 23 28 28 28 26 25 25 25 23 19 21 23 20
54 44 42 41 36 26 25 20 38 35 29 27 27 28 22 25 28 32 32 27 26 20 20 17 16 21 25 28 31 28 27 27 28 31 32 30 28 24 24 19 19 21 20 17
34 51 36 38 34 20 15 20 16 23 20 27 22 32 31 31 35 35 33 30 21 21 23 16 16 20 25 31 33 33 33 32 34 33 32 36 32 29 18 18 19 18 15 17
14 43 40 23 26 6 12 26 23 9 17 18 22 32 41 32 33 37 34 30 21 20 18 7 9 13 20 26 33 32 34 35 34 35 33 31 32 24 16 17 16 17 19 20
7 30 21 19 28 15 15 9 15 18 3 8 12 15 30 27 30 34 26 24 22 21 17 8 15 17 17 20 22 27 28 28 34 34 33 30 27 19 16 14 17 19 21 21
3 5 27 20 15 5 8 11 8 7 10 8 12 21 26 26 30 31 27 21 17 12 11 8 17 18 21 18 19 19 19 22 28 29 28 25 22 17 12 11 17 21 21 20
5 5 2 15 6 9 8 11 13 7 8 1 8 14 15 18 17 18 17 18 19 19 15 23 23 19 24 23 19 18 19 20 21 23 22 16 17 13 9 13 18 19 20 28
6 8 7 4 4 6 8 8 11 12 12 16 18 21 17 20 26 25 23 17 7 17 25 22 22 25 28 32 21 17 19 23 25 24 20 27 26 25 18 16 19 21 31 33
2 6 11 9 11 15 12 13 15 18 21 20 20 21 23 25 21 20 17 14 23 19 19 20 26 27 29 30 22 20 25 27 29 30 27 32 37 28 32 17 22 29 32 32
4 4 14 16 13 20 20 18 16 15 18 23 26 20 19 14 12 21 15 16 21 25 30 31 24 30 30 27 23 24 26 27 27 27 29 29 32 34 14 11 17 27 31 32
10 17 15 30 22 18 11 15 16 14 13 13 14 16 17 15 15 15 12 20 28 32 30 32 25 27 31 29 26 24 26 28 29 27 18 20 28 25 19 11 21 24 28 30
18 19 25 23 24 24 25 24 22 25 22 17 17 10 12 17 25 33 35 25 28 33 29 15 21 28 28 29 28 29 30 34 34 30 20 29 21 14 10 15 18 22 24 26

GFSCGP_700_spd_009.txt.gz
Wind_Speed
34 35 37 29 20 13 38 32 33 24 27 28 24 18 10 8 8 12 17 15 13 12 10 11 10 10 10 10 9 9 9 9 5 2 1 2 4 8 11 13 14 15 16 19
35 41 38 29 23 18 22 12 33 26 29 31 24 19 12 9 6 10 14 13 11 11 9 8 8 9 8 10 10 10 9 7 8 9 10 11 11 9 8 10 10 12 13 13
41 44 36 33 30 24 17 17 11 24 27 28 20 19 22 19 14 15 15 9 8 7 8 10 9 9 10 10 9 8 10 12 13 12 12 13 15 17 15 11 11 11 12 13
34 45 34 35 34 28 22 19 13 10 29 27 28 16 28 26 24 25 22 19 15 12 10 10 10 11 10 11 13 13 12 12 12 12 11 10 12 17 21 20 16 12 9 8
30 40 48 40 39 32 26 20 16 16 26 34 34 15 26 30 31 28 28 23 21 18 15 10 7 10 11 14 13 14 15 14 11 11 11 10 9 12 16 20 22 21 16 12
36 17 45 48 41 32 26 22 20 22 22 18 38 32 25 32 29 22 28 26 24 21 21 20 13 11 13 14 17 16 17 15 11 8 6 6 8 7 11 16 21 22 22 18
30 35 31 35 47 36 32 25 5 3 3 6 35 32 29 23 24 24 18 16 16 24 24 23 22 19 17 18 18 19 17 16 13 11 9 5 1 5 8 13 16 19 23 24
26 27 40 33 37 35 35 31 17 7 4 8 15 17 43 33 29 23 22 19 16 17 21 18 19 22 20 15 15 18 21 17 17 16 14 11 7 6 6 9 12 17 21 21
30 33 33 41 33 31 33 31 27 29 8 5 14 17 26 28 20 24 25 30 23 21 20 18 17 22 26 22 20 20 18 19 21 21 20 17 14 12 10 10 13 14 17 19
29 14 36 36 33 32 33 29 17 14 6 5 7 9 11 17 20 24 28 28 25 22 25 20 19 18 19 17 22 25 24 22 23 24 24 24 21 20 18 17 15 18 19 20
40 32 28 29 36 37 32 33 29 26 20 7 4 16 22 16 23 22 21 24 26 22 18 17 19 19 18 19 23 25 29 28 25 25 28 30 30 27 24 24 20 20 20 20
48 36 40 38 32 32 28 31 36 27 13 13 17 23 17 18 19 21 21 24 25 19 16 17 18 20 20 22 25 24 26 34 32 28 28 29 33 28 25 26 23 23 21 20
46 45 32 34 39 36 35 31 29 36 36 30 15 19 19 16 15 16 20 26 23 24 24 18 20 21 24 24 25 26 26 24 32 33 33 33 37 22 22 23 24 23 19 18
45 44 43 33 33 31 28 34 31 32 36 28 34 25 19 17 21 20 22 29 25 24 24 22 20 14 19 20 24 28 29 29 30 31 37 36 31 24 23 21 24 23 18 19
42 48 47 48 50 36 26 27 23 34 43 35 33 29 27 23 22 23 24 30 28 25 25 24 19 18 17 20 25 30 26 26 28 31 39 37 30 28 25 24 20 22 17 21
17 47 48 51 45 44 42 37 37 35 41 40 38 33 30 24 24 26 30 32 32 31 28 26 18 17 15 16 22 26 26 30 25 27 34 45 39 32 26 26 18 20 20 17
7 36 42 40 46 35 31 30 24 32 44 40 36 34 30 23 27 27 29 31 33 35 32 22 22 17 14 15 20 25 29 30 30 31 37 40 45 30 25 32 24 23 18 13
16 14 39 39 35 9 26 29 27 23 27 25 19 21 22 19 24 27 34 31 35 35 29 23 18 10 10 12 16 18 23 29 33 34 39 42 46 26 28 21 18 18 16 18
15 11 29 29 28 14 19 25 24 24 11 8 21 18 25 28 24 33 36 37 35 31 21 22 15 13 13 15 15 16 20 22 25 28 30 36 29 24 28 19 19 16 12 15
2 6 24 27 18 6 18 22 26 25 21 20 18 13 15 19 21 34 39 32 27 23 21 21 12 13 14 16 19 23 21 23 23 23 25 27 28 30 24 18 17 19 18 24
6 3 6 6 8 8 21 19 21 12 14 19 31 30 25 20 27 34 28 25 22 21 20 19 15 15 17 22 26 26 23 20 19 22 25 28 30 28 26 29 28 29 25 18
9 7 7 5 6 3 15 19 16 19 21 16 19 22 22 24 25 26 25 25 25 24 18 21 23 22 24 29 28 26 24 20 21 25 26 27 29 27 32 32 34 36 33 26
13 2 1 6 17 20 16 21 23 22 21 22 23 25 23 24 22 24 20 22 22 27 20 19 24 35 36 33 30 30 27 21 24 25 26 25 26 28 29 30 31 31 41 28
20 22 7 10 20 24 27 28 26 24 25 24 24 25 25 23 24 22 26 23 23 16 20 25 29 23 29 27 31 34 29 29 26 24 22 22 21 26 29 22 9 21 24 19
19 18 11 14 18 19 18 20 20 17 15 17 21 23 24 22 21 25 19 23 23 33 29 32 32 29 31 26 28 31 31 28 24 21 24 27 22 11 19 16 16 17 18 16
18 22 25 24 23 10 20 15 14 14 10 15 16 17 17 24 27 20 23 26 33 31 23 27 33 29 27 24 24 28 29 24 22 20 16 19 22 16 9 16 16 18 15 17

GFSCGP_700_spd_015.txt.gz
Wind_Speed
33 35 39 35 31 24 22 25 22 25 27 27 27 24 25 11 15 22 25 25 23 20 16 18 18 19 18 16 14 12 12 10 9 9 9 8 9 10 11 12 13 14 16 16
30 36 37 32 29 27 24 23 22 21 24 21 28 28 26 19 15 11 13 24 26 23 25 24 24 22 20 16 14 13 12 11 10 11 9 8 6 5 5 5 6 6 7 7
30 26 32 33 33 30 25 25 26 23 27 25 14 24 31 25 21 17 13 14 22 22 26 29 28 24 21 19 16 13 12 13 16 16 13 11 10 9 8 7 6 6 5 5
27 32 29 33 34 33 27 25 25 26 20 23 24 21 20 29 27 25 18 19 18 19 19 20 21 19 18 18 19 18 17 17 17 16 14 14 13 13 13 14 15 16 15 13
20 29 27 35 36 33 23 25 27 26 25 20 18 13 23 23 24 28 26 23 20 19 19 18 17 16 15 18 19 20 20 19 17 15 14 12 11 10 9 9 8 11 13 13
23 15 24 30 34 32 24 24 23 27 18 13 23 22 19 25 24 26 29 27 25 22 20 20 19 19 19 20 20 21 22 19 18 16 15 13 11 9 8 6 4 6 6 8
22 27 15 24 29 34 32 22 11 11 9 10 20 19 29 20 18 17 23 26 25 28 24 24 25 25 21 20 20 21 22 21 19 17 14 12 12 10 9 6 3 1 1 4
26 23 36 21 33 31 36 33 21 16 12 15 21 16 21 25 21 21 19 21 25 26 29 29 27 24 21 21 22 21 20 23 23 20 16 14 15 14 12 9 9 9 9 9
21 25 22 33 27 32 31 36 32 18 9 12 15 18 22 20 19 20 18 22 18 17 19 23 30 30 26 21 17 16 18 20 22 22 21 20 20 19 19 16 15 13 13 15
21 9 27 17 30 31 30 33 25 24 18 17 12 9 12 16 19 18 21 18 20 21 24 25 25 28 28 23 21 21 21 19 19 24 25 25 24 24 22 22 21 19 17 18
27 24 14 24 32 38 27 24 21 22 23 14 15 22 22 18 17 17 17 20 23 23 24 28 24 27 25 24 24 25 25 24 24 23 24 27 29 29 28 20 29 23 26 22
25 17 24 28 16 32 33 32 32 27 20 19 22 25 9 10 19 20 21 25 18 24 22 29 26 27 28 26 27 26 23 23 21 22 28 28 32 37 34 38 26 31 25 25
18 14 15 18 25 36 23 35 36 32 29 31 22 23 23 20 17 19 19 18 19 19 20 25 26 26 29 26 24 25 24 24 21 26 27 30 33 36 37 40 42 33 32 23
15 14 20 27 31 31 30 26 27 35 33 29 32 32 26 29 25 21 21 21 19 24 21 26 27 20 26 26 27 25 24 24 23 24 25 28 31 35 40 45 46 51 43 40
18 21 23 35 35 35 37 35 32 30 41 35 37 39 35 30 27 25 23 24 19 24 24 28 28 16 19 24 27 22 22 22 20 19 21 22 29 35 43 47 50 54 56 49
12 6 12 27 30 32 37 37 37 35 40 36 33 33 33 30 29 27 27 29 25 27 24 26 28 24 19 24 20 19 21 21 23 24 23 24 26 28 33 43 52 53 58 59
18 6 7 14 18 28 32 39 36 38 32 41 40 38 32 28 35 36 32 28 27 28 27 28 26 25 24 25 27 23 23 28 27 27 26 27 28 29 25 26 35 41 42 37
12 7 10 16 10 10 32 34 39 40 40 36 33 33 33 35 35 36 31 34 26 27 28 29 26 25 31 27 27 27 27 24 21 16 15 17 20 23 29 27 24 30 31 26
18 3 4 7 14 16 16 24 27 35 46 44 37 31 30 36 38 33 25 36 29 29 30 27 32 29 29 29 29 29 21 14 9 9 14 16 17 20 25 26 27 24 25 23
23 10 12 6 6 6 11 21 26 28 33 35 32 32 32 31 30 27 26 32 31 31 31 33 32 29 33 33 31 26 23 16 9 13 16 16 19 21 25 25 26 23 21 25
20 22 6 11 9 8 13 20 24 19 19 28 31 32 28 29 29 31 32 34 33 32 34 36 30 34 35 32 29 24 15 9 11 18 28 33 31 22 26 27 24 22 21 23
23 21 19 2 10 7 6 12 14 22 17 29 29 27 26 27 26 26 28 26 25 27 27 27 31 35 32 26 25 19 15 19 26 40 40 29 27 27 25 24 22 18 19 19
24 25 27 12 12 22 13 11 11 13 20 24 27 32 25 22 23 22 22 23 26 32 36 37 35 28 22 18 18 20 21 29 37 25 26 27 25 24 24 25 20 16 16 18
26 29 21 21 13 10 27 29 32 33 30 32 32 29 22 22 26 28 30 31 30 28 22 24 18 16 16 20 25 32 28 33 33 32 24 21 21 21 22 27 17 16 17 18
28 24 22 21 21 20 19 21 22 28 28 23 22 24 27 26 32 26 24 22 18 18 17 18 18 20 24 31 34 33 34 27 28 23 18 19 15 13 13 11 14 16 22 22
27 30 29 29 26 22 24 14 11 12 13 10 8 12 12 14 20 19 21 18 12 12 16 20 22 25 29 28 25 25 24 19 16 11 9 9 9 10 11 13 17 21 23 24

GFSCGP_700_spd_021.txt.gz
Wind_Speed
26 30 40 37 35 30 27 25 20 21 20 22 19 15 14 13 17 17 20 23 24 24 22 22 22 23 23 23 22 20 20 19 17 15 16 16 18 18 17 15 15 15 15 15
23 37 33 32 33 32 31 28 23 18 20 24 21 22 20 16 16 18 20 22 24 25 25 26 26 25 24 22 21 19 18 19 18 17 17 17 15 12 13 15 18 15 14 14
32 32 32 33 35 35 35 32 24 23 24 20 21 24 23 20 18 19 20 22 24 27 27 29 29 28 26 26 23 21 19 19 19 18 19 18 17 14 14 14 9 11 11 10
31 25 32 36 39 36 36 31 27 25 23 24 26 26 30 25 25 23 22 22 24 27 29 29 29 30 30 28 26 23 20 20 20 20 20 16 14 12 9 6 7 4 3 5
35 32 33 38 40 38 37 32 30 27 28 27 29 30 23 25 28 26 23 24 24 25 27 29 30 30 28 29 28 25 23 23 22 22 18 17 15 11 11 11 10 10 8 5
32 28 33 33 36 36 34 32 32 32 31 24 33 31 32 25 26 22 23 22 24 25 26 27 28 29 29 28 28 27 26 25 24 21 19 17 15 14 17 15 12 10 8 8
30 37 31 32 34 37 37 36 30 26 26 21 36 32 34 25 22 22 23 23 24 25 26 28 29 29 30 27 27 28 27 27 24 22 19 17 16 16 15 14 13 12 9 7
33 31 40 35 39 40 43 45 36 25 17 21 36 36 39 29 19 16 19 18 21 26 27 27 23 25 26 24 26 26 27 26 25 22 20 18 19 18 17 14 13 13 11 12
34 36 27 38 36 39 43 50 44 40 36 30 36 33 32 20 28 28 22 21 22 23 27 26 24 24 25 24 22 24 28 25 25 22 22 20 17 18 17 16 16 15 17 18
31 26 30 34 33 34 47 43 45 46 28 27 34 33 31 30 26 25 27 24 23 23 25 28 32 28 25 26 24 24 25 25 26 25 24 23 20 18 20 19 19 20 20 20
35 29 23 31 42 45 40 50 44 45 47 21 20 29 33 25 24 26 29 25 22 22 24 26 30 32 25 26 28 28 27 29 29 28 26 27 24 24 24 23 23 24 25 23
37 32 29 31 37 33 39 45 49 39 40 43 44 35 27 26 21 18 22 22 22 22 23 24 26 31 33 26 29 32 29 28 30 30 29 28 27 28 27 28 29 29 32 31
36 39 30 28 28 36 41 46 48 52 42 44 33 36 37 16 19 27 25 22 19 18 15 17 22 27 35 32 29 31 32 29 28 28 27 26 26 27 29 28 34 34 36 39
31 36 44 32 37 29 39 40 45 46 50 39 48 41 36 35 26 20 20 23 23 18 20 19 22 27 31 33 29 30 30 33 31 31 29 28 28 28 30 30 31 34 34 38
28 35 35 39 34 28 33 36 38 49 47 48 44 46 45 40 36 32 27 25 23 23 21 21 21 23 30 32 33 32 29 31 34 33 32 30 27 29 31 31 31 33 35 36
31 32 31 31 32 34 32 34 39 37 45 48 46 48 41 43 36 29 33 31 28 24 21 24 27 22 26 29 35 32 32 32 34 33 32 31 29 30 30 29 30 32 32 35
38 34 32 33 29 25 32 38 34 35 40 39 46 50 43 43 41 43 41 35 32 33 29 26 32 26 25 33 36 35 34 35 33 34 29 30 32 31 28 26 25 21 18 18
34 37 34 31 29 26 34 33 37 38 39 39 42 39 40 46 48 47 36 40 44 41 36 31 33 30 26 34 35 36 35 38 35 31 33 34 32 29 23 18 12 10 14 16
31 35 35 32 34 24 27 21 17 16 22 32 36 34 37 39 38 45 49 52 45 39 35 33 31 32 30 30 40 36 36 35 34 35 37 35 29 24 17 12 12 17 20 22
30 27 34 34 34 26 32 16 23 22 23 22 25 28 34 34 41 43 41 42 37 33 35 33 31 37 39 31 40 42 36 37 37 36 35 31 25 21 16 11 15 17 20 24
40 37 36 35 29 34 12 19 20 15 20 20 29 35 35 28 39 35 33 37 39 40 42 36 34 36 37 31 36 40 41 40 39 37 35 31 26 22 20 19 15 14 18 26
42 42 36 39 35 21 14 10 15 17 19 23 25 27 38 40 30 32 33 31 34 39 44 45 42 39 37 33 34 36 36 36 37 35 30 28 28 22 16 19 25 28 30 28
46 45 38 35 45 27 17 21 18 22 24 20 17 29 21 20 21 27 33 40 35 37 37 40 45 41 34 35 32 31 34 35 34 31 30 29 30 24 26 25 28 27 28 26
39 36 41 16 9 21 20 21 24 21 22 10 8 0 6 18 15 18 20 18 17 20 30 35 36 37 34 35 36 36 36 34 31 30 24 20 22 25 26 27 27 27 25 25
41 20 41 26 26 23 15 15 16 12 11 10 14 17 18 19 18 17 18 17 18 19 21 27 31 32 34 34 36 34 29 25 21 19 20 22 23 25 22 20 21 24 26 28
34 16 11 27 22 13 16 18 24 21 18 18 18 14 19 24 26 27 29 26 21 23 26 29 30 30 29 26 25 24 22 21 21 21 23 23 19 16 18 21 24 25 27 26

GFSCGP_700_spd_024.txt.gz
Wind_Speed
24 28 36 35 34 28 26 24 26 16 16 21 20 18 15 29 24 21 22 23 23 25 24 26 23 24 23 22 19 17 17 17 16 13 13 15 12 13 14 16 16 11 14 12
25 37 32 30 33 31 31 31 31 22 22 25 21 23 11 27 24 22 23 23 25 25 26 27 28 26 26 23 20 18 17 16 17 16 15 14 17 18 16 13 14 17 15 10
32 29 28 31 35 36 34 34 30 21 21 23 23 23 25 24 22 22 23 24 24 27 28 30 30 30 29 27 23 19 17 17 16 18 16 18 16 13 13 16 12 9 8 9
31 28 28 35 38 37 38 33 31 26 26 22 25 21 30 26 28 26 24 25 26 26 28 29 32 32 32 30 26 23 20 19 17 19 18 17 17 15 14 13 8 3 2 2
32 30 33 35 40 38 40 31 32 29 31 22 28 17 28 32 35 30 25 26 26 28 27 30 32 33 26 30 29 26 22 21 19 18 18 16 15 13 11 9 5 5 6 4
30 28 33 33 31 36 34 33 32 32 34 23 32 25 40 41 32 27 30 27 28 26 29 28 31 32 31 26 26 24 22 22 21 19 19 18 15 13 12 10 10 9 7 7
33 35 33 32 34 32 37 38 28 24 24 18 35 38 26 27 29 25 34 28 31 30 30 31 31 34 31 26 23 23 20 21 22 21 21 20 16 15 12 9 10 10 10 11
36 31 37 34 40 36 41 41 31 20 17 22 38 35 29 32 28 27 32 31 37 32 29 31 33 30 26 25 22 22 17 18 23 24 23 21 19 16 12 12 11 13 12 11
36 36 26 40 32 36 39 45 43 41 36 28 34 37 34 25 33 21 26 22 24 35 26 29 34 29 27 25 22 16 16 16 24 26 24 22 19 13 12 14 15 14 15 16
37 29 31 30 36 36 43 39 41 45 26 25 31 35 25 35 40 28 24 20 20 24 27 28 30 27 26 27 22 20 20 16 24 26 26 23 20 14 15 17 17 18 19 22
41 38 28 32 42 45 39 43 43 40 43 17 17 27 33 33 34 37 32 30 32 25 22 27 25 26 26 29 26 24 24 22 25 28 28 26 25 22 19 19 20 21 24 21
42 38 40 36 36 38 41 43 47 38 33 41 38 30 28 28 29 31 28 28 30 28 28 28 29 28 30 27 28 24 28 27 25 28 30 27 26 27 25 24 24 23 24 26
40 44 34 36 37 37 48 45 39 46 44 33 28 32 47 16 29 16 21 23 28 25 28 22 32 31 30 29 27 28 25 29 28 28 30 29 29 30 29 25 28 27 27 31
41 44 49 32 38 34 39 45 42 41 42 41 40 36 47 26 17 17 23 26 21 14 22 24 23 32 26 33 22 23 26 26 31 29 26 29 30 29 26 27 27 30 30 29
33 34 40 46 42 37 36 42 40 41 46 40 45 39 43 46 30 31 24 19 26 23 21 23 29 23 30 28 28 28 30 30 29 30 28 28 27 27 26 28 28 28 30 28
37 33 30 42 39 40 38 38 38 42 43 47 42 42 43 37 38 35 31 34 28 33 27 18 22 21 24 28 35 31 32 32 30 29 28 29 30 28 26 26 29 29 29 28
39 38 32 32 37 35 40 41 37 36 37 36 38 45 36 36 40 31 33 32 32 36 35 26 19 20 24 22 29 34 31 34 34 32 29 30 29 27 28 28 30 32 28 23
36 42 34 32 30 24 37 36 34 31 30 36 36 32 37 42 41 40 37 27 26 26 31 34 34 23 26 30 28 27 34 37 36 34 33 33 29 29 30 29 30 27 21 17
34 36 35 30 31 29 30 29 27 30 38 32 27 26 29 31 33 42 50 44 38 39 27 41 38 33 29 33 35 31 28 36 36 35 35 35 33 36 33 29 26 22 24 19
38 34 41 35 28 26 34 31 23 20 17 11 15 16 18 17 19 20 38 43 45 44 41 33 32 33 40 42 41 32 27 36 37 38 36 38 41 39 30 27 26 25 23 17
22 30 32 31 28 31 19 27 18 17 21 19 22 20 22 24 28 29 20 19 39 38 43 44 41 41 39 41 44 42 30 34 39 38 38 40 41 32 30 30 25 18 18 17
22 19 27 28 28 17 24 25 22 18 18 22 20 16 21 23 27 33 35 26 28 36 36 39 41 37 30 31 37 35 31 33 42 41 41 42 36 33 32 27 25 23 28 20
26 28 26 21 26 15 21 19 20 25 23 22 20 21 26 25 18 18 28 28 24 31 31 27 32 38 40 37 40 36 34 36 40 44 42 37 35 37 33 29 25 28 23 24
23 24 37 31 19 15 20 24 24 19 12 8 5 7 7 9 13 18 20 27 24 27 35 29 29 31 40 40 40 42 43 39 37 41 42 39 38 34 28 24 18 20 21 21
19 21 31 39 30 21 17 18 15 17 15 14 15 15 14 17 17 16 20 23 25 23 28 28 30 31 34 39 41 44 42 38 40 37 36 34 27 21 18 18 19 18 19 22
21 21 20 25 30 24 28 21 19 21 14 7 15 16 19 17 18 18 21 22 19 27 30 29 31 31 23 30 32 32 32 32 32 28 23 19 17 17 17 19 17 20 21 22

GFSCGP_700_spd_027.txt.gz
Wind_Speed
23 26 38 33 32 30 25 28 30 24 25 30 25 25 32 24 25 26 24 23 23 24 22 26 24 23 22 20 17 15 14 12 10 10 11 10 9 10 10 9 12 8 8 12
26 38 33 29 29 32 31 33 34 28 29 32 29 29 25 32 30 35 34 27 26 23 25 26 29 26 24 20 18 16 14 16 13 10 10 11 12 13 13 15 14 10 10 10
35 20 31 30 30 34 37 38 35 23 17 18 23 32 38 25 27 35 38 32 27 24 27 29 29 30 27 25 21 17 16 17 15 13 12 13 15 13 13 12 8 7 5 4
32 29 29 29 37 35 40 40 33 31 24 29 30 14 38 26 36 39 38 36 31 27 26 28 31 31 30 29 25 22 20 19 17 16 14 14 14 14 12 7 5 5 5 3
40 32 31 39 34 36 45 36 36 33 33 24 26 20 18 31 38 38 36 35 33 29 26 23 22 22 21 20 23 24 23 22 20 19 16 15 13 12 10 8 6 10 9 8
34 32 35 33 31 34 34 35 37 38 36 14 29 28 31 28 39 39 30 35 35 32 30 27 22 18 22 19 17 18 23 24 22 21 18 15 12 11 11 10 11 12 10 9
37 39 34 32 33 34 34 36 28 17 19 11 24 33 29 34 32 38 38 26 37 35 33 32 29 24 17 14 11 11 14 20 23 23 20 16 15 14 13 10 12 12 11 9
34 34 40 34 41 35 40 42 30 12 12 12 29 22 37 33 35 33 46 30 40 34 35 34 34 28 17 15 13 9 8 11 20 21 20 18 17 15 14 13 13 11 11 9
33 38 23 38 35 38 33 49 44 29 31 18 30 33 41 34 39 35 40 33 36 34 40 39 37 30 20 19 15 13 10 10 15 21 21 22 19 14 15 15 14 14 11 12
40 26 36 35 34 36 44 32 40 45 15 20 25 33 32 29 37 41 44 43 28 15 43 46 39 35 22 17 15 15 15 14 13 20 23 25 21 17 18 17 16 13 13 12
48 43 34 30 42 42 39 46 41 34 39 11 11 31 34 28 32 41 42 43 28 26 31 40 44 31 26 19 16 17 17 19 20 22 24 27 25 22 21 19 17 15 17 19
47 40 45 51 32 41 45 44 44 32 19 28 29 34 32 36 31 39 42 37 24 27 30 44 47 32 29 21 20 19 18 21 22 23 27 27 27 27 24 20 17 18 18 18
46 53 33 40 48 44 53 48 43 46 35 36 14 37 49 39 22 19 29 29 28 33 29 42 41 38 29 22 20 20 19 21 23 26 25 29 31 29 26 23 21 21 23 22
32 51 59 35 45 31 31 48 46 43 42 39 51 37 24 46 23 26 25 32 27 31 33 30 37 40 34 27 23 22 15 18 22 26 26 24 31 29 25 26 25 24 23 25
24 33 54 58 47 31 44 31 50 51 49 38 38 45 42 38 29 20 18 24 25 24 28 34 37 34 37 31 21 20 18 16 19 24 25 27 25 28 29 29 29 28 28 26
21 23 41 44 51 51 46 39 37 53 50 47 46 40 32 33 36 28 28 23 23 21 26 27 27 29 32 33 33 27 22 23 22 22 25 26 28 29 29 31 29 27 28 28
27 15 17 34 37 35 45 59 44 33 46 46 45 45 43 40 29 19 28 30 26 34 19 25 29 27 28 24 28 31 24 23 23 23 27 29 31 30 28 29 28 26 26 28
29 25 23 25 26 12 34 40 43 37 26 42 45 40 35 36 42 32 22 15 29 18 41 34 32 32 27 23 21 18 18 23 22 25 30 32 32 32 31 31 30 30 30 30
24 26 16 19 28 17 33 20 31 28 35 24 26 36 31 27 24 42 36 31 26 31 23 35 36 31 30 32 25 20 20 22 22 26 33 32 32 35 34 31 31 30 30 30
29 28 30 20 14 16 30 32 23 15 23 30 27 24 22 23 30 31 24 26 26 27 37 35 41 30 24 33 40 35 29 25 26 27 31 35 33 33 35 35 32 31 29 27
17 25 25 24 19 18 10 27 29 23 21 21 23 26 24 24 25 27 28 26 19 23 24 24 35 42 40 30 31 38 38 40 34 29 32 39 38 35 36 37 34 31 28 26
4 6 17 16 18 5 27 21 27 24 21 23 24 23 20 21 22 22 27 31 29 25 28 29 32 38 46 42 35 33 35 39 38 36 34 40 42 40 40 37 35 30 28 28
19 12 9 16 6 10 19 25 14 18 19 17 17 20 21 20 21 26 25 28 35 40 36 29 24 32 37 37 39 39 39 31 32 30 35 37 41 45 43 39 34 33 33 33
35 20 20 18 16 23 8 9 27 20 12 27 20 22 23 23 26 25 22 18 23 25 23 34 33 29 31 29 34 34 35 34 35 32 34 37 40 42 41 34 35 35 30 22
26 15 17 7 3 2 11 17 26 27 24 11 21 23 20 19 17 15 19 24 28 29 28 26 31 30 27 28 25 30 32 31 37 37 38 35 38 38 33 36 32 25 20 20
5 9 7 11 17 15 19 19 16 19 26 31 22 21 21 21 18 19 21 20 23 25 22 26 27 28 27 32 30 27 28 29 35 35 32 30 31 30 30 24 22 22 21 23

GFSCGP_700_spd_030.txt.gz
Wind_Speed
26 26 34 32 33 33 30 26 25 24 13 24 33 25 32 32 30 24 24 24 16 17 17 19 19 20 22 20 18 16 15 12 13 11 11 11 10 9 10 11 10 8 9 10
27 37 33 29 29 31 33 31 33 28 17 22 32 26 32 34 31 26 25 25 22 13 22 21 22 22 22 20 19 18 17 15 14 13 13 13 12 14 14 16 14 10 11 10
37 24 29 32 31 29 35 38 37 31 19 14 37 32 37 37 34 31 30 26 24 24 14 23 25 24 22 23 20 18 17 16 15 14 15 16 16 14 14 13 12 12 10 6
35 31 17 32 33 33 36 44 39 31 26 22 18 8 36 38 41 40 36 35 32 32 23 19 15 28 28 27 23 22 21 20 19 18 17 16 15 13 11 9 9 7 6 5
30 31 36 33 33 38 43 35 34 34 32 30 24 24 31 33 44 46 42 41 30 35 30 21 15 12 14 21 25 24 24 24 23 22 18 16 16 13 12 10 10 10 10 11
32 20 23 34 29 29 34 32 32 32 33 22 36 36 29 35 36 41 42 43 30 32 33 27 16 16 14 14 17 18 19 27 26 25 21 16 14 14 12 12 12 11 12 11
36 37 32 29 31 28 31 34 18 15 16 11 33 37 36 25 31 30 42 41 33 30 29 32 26 24 22 19 18 17 18 19 27 27 24 17 15 15 13 13 13 13 12 13
36 25 39 34 42 38 40 40 24 10 4 5 30 20 46 38 30 33 38 37 34 30 32 27 25 21 23 22 17 15 16 17 19 27 25 19 18 17 16 15 15 14 16 17
18 34 28 42 37 38 41 43 39 38 30 13 16 27 36 28 37 33 39 40 43 35 35 27 23 25 23 23 21 17 15 15 17 19 23 22 21 20 17 16 17 18 19 17
42 18 21 35 35 41 36 36 31 32 15 17 11 23 31 35 32 34 40 42 45 41 36 37 28 29 30 24 22 21 18 18 15 15 20 21 23 20 19 19 20 21 20 17
47 47 41 27 39 43 47 43 34 36 35 12 7 32 41 35 31 26 36 47 42 52 44 41 39 29 34 34 25 25 23 22 22 21 20 22 25 24 22 20 22 21 20 17
41 40 46 49 42 31 46 44 41 32 21 27 38 51 20 28 31 36 32 36 45 50 42 35 38 33 35 41 31 25 28 25 25 23 22 23 28 28 26 22 22 21 18 16
13 31 33 36 43 50 44 37 51 49 36 42 20 25 38 40 34 26 17 35 43 47 41 40 31 43 34 35 35 27 24 23 24 27 27 26 29 30 29 25 22 21 20 18
27 33 36 33 39 41 40 48 35 51 44 35 58 37 33 28 31 32 33 24 26 44 36 41 43 39 45 36 32 27 18 19 21 26 30 29 28 29 28 27 26 25 22 21
20 29 28 40 37 47 51 42 47 46 56 50 47 41 49 40 32 15 17 29 29 37 43 33 37 35 47 43 35 31 21 18 17 24 27 29 27 27 32 31 28 28 27 27
17 17 17 32 32 46 51 50 42 42 50 53 50 44 36 30 46 35 26 28 26 35 33 34 26 36 33 42 42 34 22 21 22 19 25 28 30 30 34 34 32 31 30 30
20 9 20 14 28 36 41 58 48 46 41 53 49 48 40 36 25 34 30 27 37 29 29 31 31 24 38 36 35 38 33 25 24 24 22 23 31 33 34 35 34 34 34 34
25 19 17 17 16 15 56 48 52 45 37 24 44 40 36 34 30 30 29 23 36 35 33 28 29 24 26 30 34 37 35 32 31 27 26 26 26 34 35 36 37 36 36 35
28 20 12 8 14 15 25 48 41 47 48 40 35 21 45 35 30 32 35 35 25 34 32 29 32 22 23 27 29 33 34 33 32 27 25 25 28 30 36 39 39 39 37 35
23 23 24 20 6 6 33 22 39 18 27 31 35 31 22 41 39 37 34 34 36 33 29 29 31 38 33 31 27 35 33 34 33 28 22 18 28 32 33 37 40 40 39 38
11 12 25 27 20 15 14 25 24 20 12 24 23 24 21 25 34 34 33 26 29 35 36 33 31 26 34 41 42 34 36 37 32 28 25 22 20 28 34 34 38 40 41 40
19 11 19 11 10 12 3 20 32 28 19 13 16 22 26 26 25 24 25 24 23 24 24 27 33 39 40 39 41 42 35 33 34 33 32 33 30 32 30 39 39 40 40 38
24 22 26 13 10 18 12 9 25 30 25 22 21 21 20 22 25 28 29 30 28 26 24 22 24 30 34 40 45 47 46 37 34 33 33 35 34 38 39 35 44 43 40 40
24 40 17 36 17 11 5 22 20 22 22 26 26 18 15 18 18 19 20 21 23 26 27 29 31 31 31 35 40 42 45 48 49 47 40 38 36 38 38 39 40 44 45 41
31 41 28 33 30 13 9 19 20 17 15 12 20 17 13 14 15 15 13 14 18 22 20 22 24 25 27 31 34 36 38 40 46 46 44 43 39 34 30 27 38 42 40 43
29 34 38 17 16 8 16 16 22 23 19 19 11 15 13 13 13 13 14 16 17 18 22 24 27 29 31 30 32 34 38 40 42 41 42 42 43 43 43 31 28 40 38 16

GFSCGP_700_spd_033.txt.gz
Wind_Speed
34 36 45 42 38 34 31 22 31 31 15 7 18 38 37 39 29 25 25 23 16 5 13 17 21 23 23 21 20 19 20 20 18 16 14 11 7 7 7 8 9 10 12 10
31 45 41 35 32 32 31 30 30 35 27 16 13 36 38 39 27 20 24 24 19 11 14 19 21 24 24 22 21 21 20 19 18 17 12 11 10 11 12 13 12 12 13 11
42 25 36 36 35 32 36 35 35 36 19 16 17 22 38 39 34 28 29 24 19 17 11 11 24 24 22 22 21 20 18 18 18 17 15 14 14 14 14 13 12 13 15 12
38 38 22 37 38 35 39 41 34 34 22 15 14 9 36 40 42 34 34 30 28 28 23 18 13 24 27 27 24 23 22 21 19 19 18 16 15 15 12 12 12 15 13 8
32 34 37 33 45 38 42 39 36 29 20 25 29 16 26 42 45 37 31 33 30 31 29 21 20 14 11 23 25 26 24 23 22 22 21 19 18 17 17 16 13 11 11 12
32 21 25 38 29 37 38 29 29 28 25 19 38 21 29 43 42 32 31 33 33 32 32 28 20 15 16 13 18 27 28 25 25 24 23 21 19 18 19 16 13 10 11 14
33 36 22 20 37 26 29 30 10 7 9 11 34 27 34 22 34 35 38 32 33 34 34 29 25 23 18 21 17 20 25 27 26 28 27 24 21 20 19 18 14 12 15 17
30 17 41 34 35 38 42 38 15 7 3 8 24 22 42 42 32 25 37 34 33 34 33 27 31 24 21 19 18 17 21 22 22 20 25 25 23 22 20 19 15 14 17 19
27 31 22 40 39 37 34 43 41 28 12 4 17 41 52 44 28 31 36 37 33 36 36 30 27 31 22 23 21 17 18 19 19 19 18 26 25 24 22 20 18 18 21 23
29 17 32 26 31 40 41 33 27 30 11 12 8 26 23 36 46 33 29 37 40 35 37 33 25 26 28 25 22 20 18 18 18 18 19 21 24 25 24 22 20 22 26 26
50 31 23 19 37 43 47 45 35 33 31 7 3 22 36 29 27 29 33 24 27 31 38 37 37 28 28 26 26 23 23 21 22 22 20 20 22 27 27 24 21 26 28 27
27 26 45 43 32 32 44 47 45 25 26 38 33 23 8 25 47 31 28 26 28 30 40 43 37 32 30 27 32 29 24 24 25 25 24 24 21 29 29 26 24 28 30 28
13 12 14 19 39 44 35 45 51 53 43 42 22 9 25 40 20 28 39 29 27 28 27 44 45 41 33 33 34 32 29 28 27 25 29 27 27 28 30 28 24 31 31 29
13 13 15 17 16 23 37 43 46 55 42 43 48 33 23 21 23 32 31 29 23 17 19 27 40 39 33 31 32 31 32 32 30 30 32 32 31 27 30 29 27 30 30 29
19 19 20 23 27 36 32 31 52 53 57 43 41 44 42 42 28 14 16 26 32 26 22 24 33 38 31 33 36 34 33 33 30 32 35 37 33 30 30 33 32 32 32 31
22 19 24 31 25 25 34 42 41 65 59 49 43 41 31 41 40 43 43 30 24 28 23 23 36 40 35 31 35 40 37 34 33 33 36 34 35 34 32 34 37 36 35 33
26 24 24 15 14 21 32 62 48 41 56 49 54 46 40 44 38 30 30 36 35 24 26 25 36 47 34 29 40 39 40 39 37 36 35 32 32 36 36 35 39 40 39 38
26 24 23 15 11 8 34 41 46 48 40 41 44 36 36 44 36 33 28 28 38 31 32 28 33 36 36 34 28 36 37 41 37 37 38 32 25 30 37 40 38 43 43 42
23 27 20 7 9 25 32 20 39 34 50 37 46 37 24 31 41 39 32 28 26 27 27 32 33 38 39 33 30 38 44 39 44 40 37 34 31 30 32 40 42 42 46 47
31 30 30 12 6 7 12 25 28 37 44 47 39 36 23 20 34 44 31 27 27 30 23 29 36 33 26 26 31 30 33 39 41 45 38 35 33 31 35 37 37 44 44 47
30 33 31 25 12 18 21 13 19 24 44 41 37 39 39 37 29 30 39 33 32 28 31 26 22 28 29 25 30 30 29 36 36 36 38 40 37 37 36 36 42 41 44 49
25 26 28 34 19 15 12 12 7 17 34 36 44 34 41 35 29 28 34 35 30 23 26 30 33 32 28 28 33 33 37 35 36 39 39 42 40 40 33 31 42 43 45 45
29 28 31 27 30 32 18 14 11 19 27 23 27 30 31 30 26 19 27 31 30 26 24 24 24 29 30 33 34 36 35 40 42 42 43 44 44 41 40 38 33 38 43 50
25 32 31 34 36 41 19 8 11 25 29 29 24 23 25 26 26 25 24 24 23 24 24 24 24 26 28 32 34 37 42 38 39 43 43 43 43 46 49 47 46 44 46 50
28 31 41 40 31 39 39 17 16 22 28 30 31 29 28 24 26 23 22 20 21 22 23 25 28 29 30 32 35 39 40 39 38 39 42 45 49 49 48 47 50 53 57 51
30 33 52 39 33 28 46 18 13 19 27 28 29 30 27 23 20 16 14 13 12 13 16 19 21 25 28 34 38 42 45 46 43 46 48 49 51 54 58 58 61 58 59 53

GFSCGP_700_spd_039.txt.gz
Wind_Speed
36 37 46 40 38 30 19 26 17 23 21 19 21 20 18 13 19 23 26 27 23 9 14 19 24 26 27 27 26 24 23 22 21 19 17 15 12 12 12 11 11 12 10 9
36 48 39 39 37 37 36 26 26 25 18 18 19 20 18 19 16 16 18 23 23 19 20 22 23 27 28 27 25 25 22 22 20 19 16 14 13 12 13 14 15 15 12 12
45 24 43 39 39 37 37 37 27 18 16 20 26 29 31 28 22 17 16 21 27 24 19 22 25 25 26 28 26 25 22 21 20 18 19 17 16 15 15 15 15 14 13 12
42 35 16 42 45 41 36 34 28 33 19 19 13 24 24 24 27 22 20 22 25 27 24 20 25 26 28 27 26 26 26 24 22 21 19 17 14 13 10 11 13 15 16 15
42 40 43 27 47 42 37 25 33 25 23 22 21 15 27 21 26 26 21 19 23 31 27 23 17 20 23 27 28 27 27 26 24 22 20 18 17 15 15 16 16 17 16 14
36 33 34 42 27 40 27 17 16 17 20 22 34 24 33 29 33 29 23 24 21 28 31 30 24 18 20 26 31 31 29 29 28 26 24 22 19 17 17 17 15 14 13 12
33 31 30 31 29 29 31 24 12 13 13 16 25 24 41 16 36 37 24 22 23 23 29 32 31 27 24 24 29 32 31 32 31 29 27 24 22 19 18 17 16 14 14 13
33 25 36 38 35 28 39 37 15 14 15 15 21 21 31 34 37 10 28 23 24 31 25 27 29 28 25 25 24 23 33 34 34 32 30 27 24 23 20 20 18 15 15 15
31 30 16 31 35 33 29 41 38 18 6 5 22 26 31 25 29 29 35 26 27 31 27 23 23 26 26 29 30 27 25 22 32 34 32 31 28 27 24 22 20 17 18 19
21 11 30 27 31 29 30 34 23 29 13 12 11 18 25 28 40 32 36 32 29 26 23 16 15 19 25 30 30 29 27 27 25 20 28 33 31 28 25 24 24 20 19 23
33 21 12 27 38 37 31 36 27 23 18 9 8 13 17 31 29 37 46 39 35 27 20 14 17 18 21 25 30 30 29 25 25 29 23 19 21 23 22 23 24 24 22 26
31 22 22 25 24 31 41 34 38 24 19 28 12 14 8 11 24 30 30 38 42 32 25 19 14 16 22 24 27 30 32 31 27 25 27 25 23 22 25 24 24 27 25 28
25 22 21 13 18 31 37 37 36 36 25 28 17 9 19 6 17 24 28 27 29 34 35 28 23 19 18 22 26 30 33 34 31 29 27 27 27 26 26 25 24 27 28 31
15 14 25 22 23 24 24 30 39 40 37 31 38 27 23 14 23 14 12 20 28 28 35 34 27 22 20 21 34 33 32 34 35 32 30 29 29 30 26 23 24 26 28 33
3 3 12 16 18 14 20 26 30 36 42 41 42 43 35 37 27 22 20 12 17 29 28 26 30 24 22 20 28 37 35 36 38 36 33 32 28 29 30 28 26 25 29 33
10 4 9 13 18 12 19 23 33 31 35 31 41 40 17 26 28 34 38 31 17 13 32 32 32 31 29 20 26 35 33 37 38 37 34 30 32 33 31 32 31 28 29 33
11 9 8 10 12 17 25 39 32 29 29 33 42 40 38 43 37 30 28 29 27 27 20 19 23 26 27 23 25 37 35 35 33 31 29 33 37 37 36 34 36 36 32 32
12 9 9 9 5 10 23 21 25 26 31 39 47 47 40 44 45 41 30 24 25 24 20 18 20 29 30 29 23 33 34 30 31 29 28 31 36 38 38 37 35 37 38 35
18 15 8 9 21 24 24 17 20 20 24 22 32 38 40 35 29 32 29 34 29 28 26 23 21 25 33 31 28 32 36 32 30 30 31 32 33 35 37 37 35 35 38 39
25 27 16 10 11 12 12 27 21 21 32 36 18 21 38 31 39 30 25 22 18 18 23 25 24 18 32 32 33 37 37 38 34 32 35 29 30 32 38 40 39 38 38 37
9 18 29 26 18 17 23 15 13 21 12 13 23 15 19 41 45 28 18 22 20 23 25 26 27 23 26 32 36 38 42 39 33 34 31 31 33 35 36 39 41 38 41 39
11 10 16 24 19 26 20 32 25 16 20 19 16 22 24 25 28 35 23 25 21 17 23 26 28 26 23 27 32 35 36 33 36 36 35 36 35 36 36 41 42 41 31 45
15 22 17 20 23 17 17 34 38 32 30 24 23 20 23 25 28 29 27 29 27 21 19 28 27 26 23 24 25 33 38 36 29 30 29 28 26 26 27 28 29 44 47 54
21 23 25 27 38 38 31 27 24 32 33 35 30 19 25 32 31 29 31 31 32 28 22 26 30 27 26 24 26 29 27 29 31 32 31 30 30 30 34 36 34 37 42 36
24 21 20 37 42 39 43 38 37 35 30 34 47 38 32 35 34 40 37 34 37 35 29 30 32 29 29 29 28 28 29 31 30 30 31 31 33 34 35 39 41 40 42 44
33 32 34 45 37 34 39 37 38 38 40 32 38 39 46 37 41 46 45 41 37 34 34 31 32 34 33 32 31 30 28 27 27 27 27 28 30 32 34 36 39 42 44 45

GFSCGP_700_spd_042.txt.gz
Wind_Speed
33 32 42 36 33 30 25 22 27 23 20 19 22 20 16 15 17 17 20 17 20 18 11 17 26 29 31 31 31 29 27 25 23 21 19 16 14 13 12 11 11 11 10 10
28 43 32 28 29 30 30 25 27 20 19 19 19 20 19 19 18 15 21 13 15 21 21 20 24 28 31 31 30 29 27 26 23 21 19 17 14 13 12 13 14 13 12 11
34 18 31 30 31 33 33 33 25 24 21 21 18 22 21 21 19 18 18 21 14 21 24 20 25 26 29 30 29 28 27 25 23 22 21 20 18 17 15 13 13 13 13 13
35 27 27 33 34 33 35 32 27 24 18 20 20 27 26 26 22 23 20 21 20 20 24 25 24 26 28 28 28 28 27 26 24 23 23 20 17 14 12 12 13 14 15 15
35 35 31 35 33 31 32 25 26 27 25 24 28 18 25 19 24 25 25 21 23 21 25 28 23 24 22 27 29 28 27 26 25 24 22 21 20 17 16 16 15 15 15 16
36 20 32 31 25 28 23 23 22 22 26 27 35 33 34 30 26 25 24 23 21 22 24 27 21 21 26 27 32 33 31 28 26 24 24 22 20 18 18 16 15 15 14 15
35 37 25 26 30 25 31 29 15 15 22 21 34 37 38 15 30 27 24 25 21 24 23 25 30 24 22 27 28 31 31 30 30 28 27 24 21 20 19 18 18 17 16 16
36 31 40 35 35 31 38 36 19 17 15 19 26 34 45 34 26 17 28 25 22 22 28 24 26 31 27 22 25 31 32 32 31 31 29 26 24 24 22 22 20 18 17 16
34 36 31 28 35 32 37 44 39 13 10 11 24 32 27 20 31 34 31 23 27 23 26 22 22 26 31 30 24 23 26 32 32 29 30 30 28 27 26 24 22 20 18 18
27 29 27 35 31 34 27 35 34 31 16 19 16 26 24 24 34 28 30 31 25 26 30 28 24 23 24 26 29 26 26 23 22 27 31 32 31 30 29 28 27 24 19 18
24 23 32 31 43 43 40 33 42 30 27 12 11 18 23 27 22 29 30 30 29 27 29 29 21 17 19 22 26 31 31 29 30 28 23 21 25 33 33 33 31 29 24 22
31 21 21 37 30 35 39 35 43 29 31 36 22 13 6 8 17 22 24 27 27 26 25 22 22 17 18 21 26 29 30 33 31 29 30 27 22 20 27 32 31 28 27 24
22 27 26 19 30 32 41 42 39 38 26 31 24 9 8 11 13 16 20 23 24 25 27 28 26 24 19 20 27 27 30 30 31 31 29 29 29 26 22 20 21 25 27 27
26 20 38 28 28 34 40 43 40 43 41 32 31 24 12 7 5 12 11 11 14 23 29 36 38 33 28 21 27 31 31 33 36 35 35 32 30 25 23 23 22 23 22 26
9 25 18 22 10 12 26 42 43 44 44 42 31 30 27 17 11 10 10 11 9 14 18 18 22 31 29 25 21 22 30 34 38 39 38 37 31 28 29 30 28 25 26 24
2 13 11 20 14 11 14 22 30 41 42 39 37 33 21 21 25 25 21 18 15 15 10 21 21 22 27 29 25 23 25 34 40 39 38 37 35 35 33 32 33 32 30 29
6 10 10 22 19 16 23 32 30 30 33 33 39 31 28 27 22 23 33 34 31 27 18 15 18 19 25 26 27 26 26 28 42 41 37 37 37 38 37 36 35 36 36 34
10 11 11 11 14 17 26 21 29 35 31 30 27 25 24 24 25 25 25 24 21 21 27 25 19 20 21 25 28 30 26 28 41 42 41 39 40 39 39 39 38 39 39 39
18 13 14 19 22 10 12 12 13 17 26 29 25 24 27 26 25 28 28 30 29 22 24 29 25 23 22 22 25 31 29 27 38 39 39 40 41 42 40 41 40 40 40 40
17 19 19 13 22 19 13 28 11 9 17 17 16 13 15 22 30 29 22 19 20 21 20 23 25 27 28 27 27 33 34 31 35 37 37 41 40 40 37 35 37 39 41 42
20 20 25 25 22 18 18 6 8 18 3 9 12 13 14 18 18 25 27 27 27 25 24 21 24 33 28 27 31 35 36 35 31 38 36 35 33 31 28 28 31 35 40 44
17 17 23 27 27 28 20 18 19 10 14 14 13 13 21 23 20 18 25 30 28 26 28 23 23 32 29 29 26 31 35 33 37 40 41 39 36 33 35 33 35 37 40 43
24 23 21 21 27 23 19 24 27 29 28 19 30 20 16 24 25 20 22 23 39 28 31 25 20 28 30 30 28 29 32 34 38 41 42 40 40 39 40 38 37 37 40 41
25 22 26 26 31 31 23 25 35 37 38 31 28 25 21 21 22 23 22 22 28 34 33 30 24 27 30 30 31 28 26 31 33 38 38 38 39 38 35 32 29 27 25 26
22 21 29 37 37 35 32 30 33 32 40 47 50 38 28 28 24 27 29 27 28 32 32 31 28 23 30 31 30 26 27 28 31 33 33 32 30 30 31 33 31 29 27 25
30 35 38 42 27 27 30 26 26 32 43 40 41 44 47 37 30 33 31 33 34 32 33 34 33 27 23 33 32 29 28 28 28 26 27 28 29 31 32 33 33 33 33 33

GFSCGP_700_spd_045.txt.gz
Wind_Speed
29 32 43 40 40 33 28 27 30 28 24 25 25 23 18 17 19 17 19 24 24 23 22 25 27 28 29 30 30 30 29 27 25 23 20 17 15 14 12 11 10 9 9 9
27 45 35 31 33 36 33 30 28 27 25 22 25 26 25 20 20 21 20 24 25 24 25 25 24 29 30 31 31 31 29 27 25 23 20 18 17 15 13 13 12 10 10 8
38 23 31 31 33 36 37 35 30 26 26 26 23 26 25 25 21 22 19 23 23 28 28 25 21 28 30 32 31 30 29 27 25 24 22 20 19 17 15 14 13 11 11 10
35 27 29 35 36 35 37 35 30 25 28 28 29 26 29 26 27 25 22 24 25 28 29 24 21 23 28 28 29 30 28 27 26 25 23 21 18 17 15 13 13 12 12 12
42 31 30 36 37 35 35 28 32 29 27 25 26 33 30 29 33 29 26 24 25 27 30 30 20 17 23 27 29 29 28 28 26 25 23 21 20 18 16 16 15 14 13 14
36 27 33 27 31 28 28 27 27 30 31 28 36 31 29 27 32 33 26 27 25 28 30 30 25 17 23 27 30 32 31 30 28 26 24 21 20 19 18 17 15 14 15 14
37 41 29 28 29 30 30 29 22 21 25 18 37 37 36 27 26 26 28 28 27 28 30 31 32 29 21 28 32 34 33 30 29 27 26 23 22 21 20 19 18 17 15 15
39 35 46 34 40 36 36 38 28 22 19 20 35 40 43 34 19 29 26 28 28 27 31 32 33 31 23 21 27 29 30 30 31 29 26 24 22 22 22 20 20 19 17 15
41 44 27 43 36 39 36 47 40 31 30 22 33 35 34 32 36 30 25 30 30 30 30 32 33 33 25 24 17 26 29 30 30 28 27 25 25 24 23 22 21 21 19 18
37 29 40 31 32 38 39 36 37 37 22 20 21 21 31 29 31 37 34 28 32 29 30 32 32 33 29 25 23 18 19 28 29 29 28 28 28 27 27 25 24 24 22 20
44 33 25 38 49 46 47 38 44 34 31 15 12 13 24 26 25 30 33 37 30 32 29 31 31 32 25 25 28 28 23 19 22 27 25 25 27 30 29 29 28 27 25 24
51 29 36 45 41 36 38 41 41 34 33 34 19 2 4 16 18 20 31 28 32 29 30 28 32 31 31 31 29 27 26 24 23 24 23 22 20 21 25 30 31 29 29 28
27 32 30 31 37 37 45 44 38 41 31 31 23 9 7 8 6 19 21 26 29 29 27 28 28 29 31 31 29 29 28 26 27 29 27 27 26 27 24 21 24 27 29 30
25 30 39 26 41 41 42 46 44 38 41 30 33 24 8 6 9 14 18 20 24 27 27 27 26 27 26 28 26 22 24 29 32 33 33 31 29 27 25 24 19 19 19 22
12 22 34 37 15 24 42 45 44 46 39 41 23 26 15 10 13 14 15 16 16 18 23 27 31 24 25 28 27 18 20 27 31 35 35 33 29 29 29 27 24 22 21 20
9 16 25 30 27 16 19 33 43 43 40 35 32 22 21 17 14 12 12 11 8 10 10 15 22 26 30 30 31 26 21 20 25 34 38 37 34 32 32 29 26 26 26 27
5 12 20 24 27 18 24 31 30 40 40 37 35 31 19 17 19 17 14 14 13 11 11 14 14 21 23 26 30 31 27 24 25 25 32 39 38 37 35 32 31 29 30 33
10 8 10 19 25 22 25 26 25 23 26 30 29 22 26 23 19 19 16 16 16 15 15 15 14 16 19 25 23 28 31 32 28 27 27 36 39 35 37 37 35 36 37 37
16 13 11 16 24 16 32 20 22 30 30 24 25 24 18 18 16 18 16 16 18 19 18 14 17 19 18 18 21 30 33 36 31 28 24 33 40 39 37 37 38 38 40 40
20 18 18 12 18 19 13 12 12 12 18 22 29 24 21 19 21 18 16 16 18 19 19 20 19 23 25 28 26 26 37 38 36 27 25 31 38 41 40 39 38 40 41 42
19 22 23 23 15 20 4 10 13 17 8 14 15 16 19 19 19 23 23 29 29 27 25 29 30 36 37 33 32 35 34 39 37 38 32 30 37 39 41 42 42 42 43 43
18 25 25 25 27 24 16 9 15 11 11 11 14 14 15 12 10 23 29 32 35 35 31 29 29 31 32 35 36 35 36 35 35 38 38 32 33 38 40 40 41 42 40 36
19 17 22 23 30 19 22 22 19 12 11 7 8 7 9 18 17 16 20 25 31 37 32 30 29 31 27 32 38 33 29 31 33 37 37 33 34 38 37 36 36 36 35 33
17 20 26 24 27 21 20 18 22 23 18 19 19 20 18 18 16 26 24 24 25 27 34 32 31 32 27 29 36 35 32 30 27 31 33 34 34 37 38 39 38 38 36 33
24 22 26 33 34 30 28 27 25 26 28 32 31 31 33 29 23 21 27 26 24 21 25 32 34 32 33 28 33 36 33 31 29 28 31 33 34 36 37 37 37 35 37 33
27 32 35 39 29 30 30 29 30 32 34 46 44 40 43 39 32 25 24 24 25 25 25 24 28 33 35 29 26 35 33 31 30 29 27 31 33 33 33 31 29 29 28 26

GFSCGP_700_spd_048.txt.gz
Wind_Speed
29 32 45 42 37 34 28 28 30 29 26 31 26 26 25 18 31 33 27 24 28 26 25 28 30 31 31 29 26 25 25 25 23 23 20 18 14 12 10 9 8 5 5 6
30 47 35 32 33 35 34 30 32 27 30 25 29 26 24 21 15 27 39 29 28 25 27 29 23 33 32 28 27 27 27 26 23 22 19 18 16 13 12 11 10 8 6 6
45 30 31 33 35 36 39 36 32 30 24 29 25 26 28 21 27 23 29 22 27 26 29 29 24 25 30 29 27 28 28 27 25 23 22 20 18 16 14 12 11 9 8 7
39 37 29 36 38 37 40 37 32 29 28 30 28 26 35 27 27 23 23 27 25 28 29 30 21 21 26 27 25 27 28 27 26 25 23 20 17 15 13 12 11 11 11 9
50 37 38 35 38 35 38 32 34 31 28 27 32 34 24 28 31 27 25 23 28 29 30 33 27 19 15 20 25 27 28 29 28 26 22 20 17 15 15 14 12 12 10 10
40 34 35 34 31 33 30 28 31 32 31 25 36 32 30 33 34 30 31 26 30 30 31 31 30 22 19 22 22 27 30 30 29 27 24 20 19 18 18 15 13 11 12 9
38 43 34 34 30 33 32 33 23 19 24 18 35 34 28 28 36 29 35 31 30 33 30 32 32 28 21 24 25 27 30 32 30 27 26 23 21 21 19 17 15 12 13 13
41 40 47 37 41 38 39 42 27 22 18 19 35 37 41 36 23 33 34 33 30 31 33 32 33 32 23 19 24 27 29 28 28 26 24 24 22 22 21 18 16 15 14 13
40 45 38 41 37 37 42 46 40 32 28 23 33 36 33 37 33 25 22 31 31 32 34 33 32 35 23 23 15 23 25 27 28 27 26 25 22 21 19 18 18 16 16 15
45 28 41 39 33 39 42 38 35 36 21 20 27 35 40 35 38 37 28 25 31 34 35 33 33 35 25 18 18 13 20 23 26 27 27 24 23 22 21 20 19 19 16 15
48 43 34 39 52 45 43 39 40 34 30 15 14 21 24 40 40 41 40 33 28 33 36 33 34 34 23 19 24 21 17 14 26 28 27 26 26 25 25 25 23 22 20 18
38 46 43 36 44 45 43 47 41 29 31 33 26 9 6 11 35 33 36 39 34 32 37 32 34 33 34 27 22 26 25 21 16 22 28 26 26 26 27 27 26 24 25 23
17 33 40 40 35 45 49 45 44 37 34 33 21 12 6 16 22 24 24 28 37 32 31 32 32 34 34 32 26 24 28 26 23 21 22 24 24 24 23 23 25 25 25 26
20 26 36 28 35 37 47 44 43 43 38 31 32 10 10 8 9 11 17 31 27 36 31 34 28 33 34 35 30 25 24 26 28 26 25 26 25 24 22 20 18 18 17 21
11 17 27 44 34 30 41 42 44 48 37 39 31 28 16 12 14 17 16 25 25 30 31 30 29 36 31 30 30 25 27 22 24 28 29 26 26 25 24 23 22 21 18 15
3 12 16 24 31 26 21 40 43 42 42 34 34 25 16 16 17 21 20 20 26 30 26 28 32 26 29 34 27 22 23 22 20 24 25 26 29 28 28 25 25 24 23 21
9 4 8 24 22 27 27 22 40 41 40 37 35 27 24 25 25 22 18 16 12 17 18 19 24 32 29 27 26 28 29 25 24 21 20 21 24 30 32 29 28 28 26 26
11 8 8 15 16 19 21 22 19 25 38 38 30 28 17 20 23 24 22 15 11 12 13 18 14 19 37 38 37 37 35 31 27 25 22 22 24 23 32 35 34 32 30 29
9 9 9 8 12 10 11 20 27 17 18 19 38 27 18 18 19 16 12 11 13 15 15 17 13 13 14 18 21 25 29 30 31 31 28 25 24 24 26 33 36 35 34 33
12 11 9 8 8 12 16 15 14 22 22 10 14 14 17 16 13 12 14 16 18 22 22 22 26 26 27 28 18 22 22 28 36 34 30 29 26 25 25 28 33 34 34 35
19 14 16 14 9 7 9 9 15 16 7 9 14 19 15 12 17 23 25 25 27 27 28 28 27 30 33 31 35 29 26 26 35 36 35 34 32 29 25 29 32 36 35 36
17 23 22 20 19 13 5 2 4 9 11 13 20 22 20 21 19 20 25 27 31 33 31 30 27 30 40 41 40 42 38 32 34 31 34 36 36 35 32 30 35 36 37 38
5 11 16 21 30 17 9 5 4 5 7 12 17 22 18 25 26 24 25 26 28 33 33 29 33 31 29 34 43 44 41 39 35 35 35 35 35 39 38 34 35 40 38 39
12 7 16 17 24 21 16 16 15 11 9 13 14 16 23 21 24 27 37 35 34 33 32 30 30 28 27 34 33 33 38 39 37 36 33 34 36 37 35 34 35 37 35 36
19 24 20 21 19 23 26 21 20 17 18 18 19 22 20 23 29 36 36 38 37 33 23 18 26 29 31 32 33 31 29 36 39 36 34 32 32 33 33 35 34 36 38 37
20 26 29 32 28 28 28 25 23 28 28 29 29 29 28 29 34 39 36 36 35 33 25 19 20 21 26 31 32 31 28 30 37 38 36 32 31 32 34 35 34 36 37 38